Flag for Finland Weather past 2 weeks in Lappeenranta, Finland

Now
37 °F

Overcast.


Feels Like: 32 °F
Forecast: 45 / 50 °F
Wind: 7 mph from South

Location: Lappeenranta

Current Time: Oct 26, 2014 at 9:54:55 AM

Latest Report: Oct 26, 2014 at 8:50 AM


Visibility: N/A

Pressure: 30.09 "Hg

Humidity: 75%

Dew point: 30 °F

Location of LappeenrantaLocation

Historic Weather in Lappeenranta — Graph

°F

Lappeenranta temperature yesterday

Maximum temperature yesterday: 37 °F (at 2:20 PM)
Minimum temperature yesterday: 34 °F (at 12:20 AM)
Average temperature yesterday: 35 °F

Past Weeks' High & Low Weather Summary

 TemperatureHumidityPressure
High55 °F (Oct 11, 2:20 PM)100% (Oct 12, 4:50 AM)30.63 "Hg (Oct 12, 4:50 AM)
Low18 °F (Oct 23, 2:20 AM)42% (Oct 22, 1:20 PM)29.30 "Hg (Oct 20, 8:20 AM)
Average34 °F79%30.05 "Hg
* Reported Oct 11 9:20 AM — Oct 26 8:20 AM, Lappeenranta, Weather by CustomWeather, © 2014

Note: Actual official high and low records may vary slightly from our data, if they occured in-between our weather recording intervals... More about our weather records

Advertising

Lappeenranta weather history for previous 24 hours

 ConditionsComfort  
Time TempWeatherWind HumidityBarometerVisibility
8:20 AM
Oct 26
37 °FPartly sunny.8 mph75%30.09 "HgN/A
7:50 AM37 °FOvercast.7 mph75%30.09 "HgN/A
7:20 AM37 °FMore clouds than sun.7 mph75%30.09 "HgN/A
6:50 AM37 °FMostly cloudy.7 mph75%30.09 "HgN/A
6:20 AM37 °FMostly cloudy.7 mph70%30.09 "HgN/A
5:50 AM37 °FOvercast.8 mph70%30.12 "HgN/A
5:20 AM37 °FPassing clouds.7 mph75%30.12 "HgN/A
4:50 AM37 °FPassing clouds.6 mph70%30.12 "HgN/A
4:20 AM37 °FOvercast.7 mph70%30.12 "HgN/A
3:50 AM37 °FPassing clouds.7 mph70%30.12 "HgN/A
3:20 AM37 °FPassing clouds.7 mph70%30.12 "HgN/A
3:50 AM37 °FPassing clouds.7 mph65%30.12 "HgN/A
3:20 AM37 °FPassing clouds.8 mph65%30.15 "HgN/A
2:50 AM37 °FOvercast.8 mph65%30.15 "HgN/A
2:20 AM37 °FMostly cloudy.8 mph65%30.15 "HgN/A
1:50 AM36 °FPassing clouds.8 mph65%30.15 "HgN/A
1:20 AM37 °FMostly cloudy.7 mph60%30.15 "HgN/A
12:50 AM37 °FMostly cloudy.8 mph60%30.15 "HgN/A
12:20 AM37 °FPassing clouds.7 mph60%30.15 "HgN/A
11:50 PM
Oct 25
37 °FPassing clouds.8 mph60%30.15 "HgN/A
11:20 PM37 °FPassing clouds.8 mph65%30.15 "HgN/A
10:50 PM37 °FPassing clouds.7 mph65%30.15 "HgN/A
10:20 PM37 °FPassing clouds.7 mph65%30.18 "HgN/A
9:50 PM37 °FOvercast.8 mph65%30.18 "HgN/A
9:31 PM36 °FPassing clouds.7 mph70%30.18 "HgN/A
8:50 PM36 °FPassing clouds.8 mph70%30.18 "HgN/A
8:20 PM36 °FPassing clouds.6 mph70%30.18 "HgN/A
7:50 PM36 °FPassing clouds.7 mph70%30.18 "HgN/A
7:20 PM36 °FPassing clouds.6 mph70%30.21 "HgN/A
6:50 PM36 °FPassing clouds.6 mph75%30.21 "HgN/A
6:20 PM36 °FPassing clouds.6 mph70%30.21 "HgN/A
5:50 PM36 °FPassing clouds.7 mph70%30.21 "HgN/A
5:20 PM36 °FPassing clouds.7 mph70%30.21 "HgN/A
4:50 PM36 °FPassing clouds.8 mph70%30.21 "HgN/A
4:20 PM36 °FPassing clouds.9 mph70%30.21 "HgN/A
3:50 PM36 °FPassing clouds.8 mph70%30.21 "HgN/A
3:20 PM37 °FPassing clouds.9 mph65%30.24 "HgN/A
2:50 PM36 °FPassing clouds.10 mph70%30.24 "HgN/A
2:20 PM37 °FPassing clouds.8 mph65%30.24 "HgN/A
1:50 PM36 °FPassing clouds.9 mph70%30.24 "HgN/A
1:20 PM36 °FPassing clouds.10 mph75%30.24 "HgN/A
12:50 PM36 °FPassing clouds.10 mph70%30.24 "HgN/A
12:20 PM36 °FPassing clouds.8 mph70%30.27 "HgN/A
11:50 AM36 °FPartly sunny.9 mph70%30.27 "HgN/A
11:20 AM34 °FSprinkles. Partly sunny.8 mph81%30.27 "HgN/A
10:50 AM36 °FLight rain. Partly sunny.8 mph70%30.27 "HgN/A
10:20 AM36 °FPassing clouds.8 mph70%30.27 "HgN/A
9:50 AM34 °FPassing clouds.7 mph75%30.27 "HgN/A
9:20 AM34 °FPassing clouds.6 mph75%30.27 "HgN/A
Weather by CustomWeather, © 2014

See weather overviewHow to use our weather pages